• In France
  • List of Countries
  • For 7 days
  • Water Temperature
  • Satellite Maps
  • Weather Map
  • Weather Widgets
  • user-avatar
    Login

    Hourly Weather Loubomo

    Today, 18 December, Monday

    Time Temperature Precipitation Wind Pressure Humidity
    00:00 +24°C° 0 mm 1 mps 700 mmHg 72%
    01:00 +23°C° 0 mm 1 mps 700 mmHg 76%
    02:00 +23°C° 0 mm 1 mps 700 mmHg 80%
    03:00 +22°C° 0 mm 1 mps 700 mmHg 85%
    04:00 +22°C° 0 mm 1 mps 700 mmHg 90%
    05:00 +22°C° 0 mm 1 mps 700 mmHg 91%
    06:00 +22°C° 0 mm 1 mps 700 mmHg 91%
    07:00 +22°C° 0 mm 1 mps 701 mmHg 92%
    08:00 +25°C° 0 mm 1 mps 701 mmHg 79%
    09:00 +28°C° 0 mm 1 mps 702 mmHg 66%
    10:00 +30°C° 0 mm 1 mps 702 mmHg 54%
    11:00 +32°C° 0 mm 1 mps 702 mmHg 46%
    12:00 +34°C° 0 mm 1 mps 701 mmHg 38%
    13:00 +36°C° 0 mm 1 mps 700 mmHg 30%
    14:00 +36°C° 0 mm 1 mps 700 mmHg 31%
    15:00 +35°C° 0 mm 1 mps 699 mmHg 32%
    16:00 +32°C° 0 mm 0 mps 698 mmHg 33%
    17:00 +31°C° 0 mm 1 mps 698 mmHg 39%
    18:00 +29°C° 0 mm 1 mps 698 mmHg 45%
    19:00 +27°C° 0 mm 1 mps 697 mmHg 51%
    20:00 +26°C° 0 mm 1 mps 698 mmHg 55%
    21:00 +25°C° 0 mm 1 mps 698 mmHg 58%
    22:00 +25°C° 0 mm 1 mps 699 mmHg 62%
    23:00 +24°C° 0 mm 1 mps 699 mmHg 69%

    Tomorrow, 19 December, Tuesday

    Time Temperature Precipitation Wind Pressure Humidity
    00:00 +24°C° 0 mm 1 mps 699 mmHg 77%
    01:00 +23°C° 0 mm 2 mps 699 mmHg 84%
    02:00 +23°C° 0 mm 2 mps 699 mmHg 85%
    03:00 +23°C° 0 mm 1 mps 699 mmHg 87%
    04:00 +23°C° 0 mm 1 mps 699 mmHg 88%
    05:00 +23°C° 0 mm 1 mps 700 mmHg 88%
    06:00 +23°C° 0 mm 1 mps 700 mmHg 89%
    07:00 +23°C° 0 mm 1 mps 700 mmHg 89%
    08:00 +25°C° 0 mm 1 mps 701 mmHg 77%
    09:00 +28°C° 0 mm 1 mps 701 mmHg 65%
    10:00 +30°C° 0 mm 1 mps 702 mmHg 53%
    11:00 +32°C° 0 mm 1 mps 701 mmHg 45%
    12:00 +34°C° 0 mm 1 mps 700 mmHg 37%
    13:00 +36°C° 0 mm 1 mps 700 mmHg 29%
    14:00 +36°C° 0 mm 1 mps 699 mmHg 28%
    15:00 +36°C° 0 mm 1 mps 698 mmHg 26%
    16:00 +35°C° 0 mm 1 mps 697 mmHg 25%
    17:00 +33°C° 0 mm 1 mps 697 mmHg 32%
    18:00 +30°C° 0 mm 1 mps 697 mmHg 39%
    19:00 +27°C° 0 mm 1 mps 697 mmHg 46%
    20:00 +26°C° 0 mm 1 mps 698 mmHg 50%
    21:00 +26°C° 0 mm 1 mps 699 mmHg 55%
    22:00 +25°C° 0 mm 1 mps 699 mmHg 59%
    23:00 +24°C° 0 mm 1 mps 699 mmHg 67%

    Day after tomorrow, 20 December, Wednesday

    Time Temperature Precipitation Wind Pressure Humidity
    00:00 +24°C° 0 mm 1 mps 699 mmHg 75%
    01:00 +23°C° 0 mm 1 mps 699 mmHg 83%
    02:00 +23°C° 0.2 mm 1 mps 699 mmHg 85%
    03:00 +23°C° 0.2 mm 1 mps 699 mmHg 86%
    04:00 +23°C° 0.2 mm 1 mps 699 mmHg 88%
    05:00 +23°C° 0 mm 1 mps 699 mmHg 89%
    06:00 +23°C° 0 mm 1 mps 700 mmHg 90%
    07:00 +23°C° 0 mm 1 mps 700 mmHg 91%
    08:00 +25°C° 0 mm 1 mps 700 mmHg 79%
    09:00 +28°C° 0 mm 1 mps 701 mmHg 67%
    10:00 +30°C° 0 mm 1 mps 701 mmHg 56%
    11:00 +32°C° 0 mm 1 mps 701 mmHg 47%
    12:00 +34°C° 0 mm 1 mps 700 mmHg 38%
    13:00 +36°C° 0 mm 1 mps 700 mmHg 28%
    14:00 +35°C° 0 mm 1 mps 699 mmHg 28%
    15:00 +35°C° 0 mm 1 mps 698 mmHg 27%
    16:00 +35°C° 0 mm 1 mps 697 mmHg 27%
    17:00 +32°C° 0 mm 1 mps 697 mmHg 33%
    18:00 +28°C° 0 mm 0 mps 697 mmHg 39%
    19:00 +25°C° 0 mm 0 mps 697 mmHg 45%
    20:00 +26°C° 0 mm 1 mps 698 mmHg 50%
    21:00 +26°C° 0 mm 1 mps 699 mmHg 55%
    22:00 +25°C° 0 mm 1 mps 699 mmHg 60%
    23:00 +24°C° 0 mm 1 mps 699 mmHg 68%

    21 December, Thursday

    Time Temperature Precipitation Wind Pressure Humidity
    00:00 +23°C° 0 mm 1 mps 699 mmHg 75%
    01:00 +23°C° 0 mm 1 mps 700 mmHg 83%
    02:00 +23°C° 0 mm 1 mps 700 mmHg 86%
    03:00 +22°C° 0 mm 1 mps 700 mmHg 90%
    04:00 +22°C° 0 mm 1 mps 700 mmHg 93%
    05:00 +22°C° 0 mm 1 mps 700 mmHg 93%
    06:00 +22°C° 0 mm 1 mps 700 mmHg 93%
    07:00 +23°C° 0 mm 1 mps 701 mmHg 93%
    08:00 +25°C° 0 mm 1 mps 701 mmHg 80%
    09:00 +28°C° 0 mm 1 mps 702 mmHg 68%
    10:00 +30°C° 0 mm 1 mps 702 mmHg 55%
    11:00 +33°C° 0 mm 1 mps 701 mmHg 46%
    12:00 +35°C° 0 mm 1 mps 701 mmHg 37%
    13:00 +37°C° 0 mm 1 mps 700 mmHg 29%
    14:00 +36°C° 0 mm 1 mps 699 mmHg 28%
    15:00 +35°C° 0 mm 1 mps 699 mmHg 28%
    16:00 +35°C° 0 mm 1 mps 698 mmHg 28%
    17:00 +32°C° 0 mm 1 mps 698 mmHg 35%
    18:00 +30°C° 0 mm 1 mps 698 mmHg 41%
    19:00 +25°C° 0 mm 0 mps 698 mmHg 48%
    20:00 +27°C° 0 mm 1 mps 699 mmHg 55%
    21:00 +26°C° 0 mm 1 mps 699 mmHg 62%
    22:00 +25°C° 0 mm 2 mps 700 mmHg 69%
    23:00 +25°C° 0 mm 2 mps 700 mmHg 75%

    22 December, Friday

    Time Temperature Precipitation Wind Pressure Humidity
    00:00 +24°C° 0 mm 1 mps 700 mmHg 80%
    01:00 +23°C° 0 mm 1 mps 700 mmHg 86%
    02:00 +23°C° 0 mm 1 mps 700 mmHg 87%
    03:00 +23°C° 0 mm 1 mps 700 mmHg 89%
    04:00 +23°C° 0 mm 1 mps 700 mmHg 90%
    05:00 +23°C° 0 mm 1 mps 700 mmHg 90%
    06:00 +23°C° 0 mm 1 mps 701 mmHg 90%
    07:00 +23°C° 0 mm 1 mps 701 mmHg 90%
    08:00 +25°C° 0 mm 1 mps 702 mmHg 79%
    09:00 +28°C° 0 mm 1 mps 702 mmHg 69%
    10:00 +30°C° 0 mm 1 mps 703 mmHg 59%
    11:00 +30°C° 1 mm 1 mps 702 mmHg 58%
    12:00 +31°C° 1 mm 1 mps 701 mmHg 57%
    13:00 +31°C° 1 mm 1 mps 700 mmHg 56%
    14:00 +32°C° 0.1 mm 1 mps 699 mmHg 52%
    15:00 +30°C° 0.1 mm 0 mps 699 mmHg 49%
    16:00 +30°C° 0.1 mm 0 mps 698 mmHg 45%
    17:00 +28°C° 0 mm 0 mps 698 mmHg 51%
    18:00 +26°C° 0 mm 0 mps 698 mmHg 57%
    19:00 +26°C° 0 mm 1 mps 698 mmHg 63%
    20:00 +26°C° 0 mm 1 mps 699 mmHg 65%
    21:00 +25°C° 0 mm 1 mps 699 mmHg 68%
    22:00 +25°C° 0 mm 1 mps 700 mmHg 71%
    23:00 +24°C° 0 mm 1 mps 699 mmHg 75%

    23 December, Saturday

    Time Temperature Precipitation Wind Pressure Humidity
    00:00 +24°C° 0 mm 1 mps 699 mmHg 79%
    01:00 +24°C° 0 mm 2 mps 699 mmHg 83%
    02:00 +23°C° 0 mm 1 mps 699 mmHg 85%
    03:00 +23°C° 0 mm 1 mps 699 mmHg 87%
    04:00 +23°C° 0 mm 1 mps 699 mmHg 90%
    05:00 +23°C° 0 mm 1 mps 699 mmHg 89%
    06:00 +23°C° 0 mm 1 mps 700 mmHg 88%
    07:00 +23°C° 0 mm 1 mps 700 mmHg 87%
    08:00 +25°C° 0 mm 1 mps 700 mmHg 78%
    09:00 +27°C° 0 mm 1 mps 701 mmHg 69%
    10:00 +29°C° 0 mm 1 mps 701 mmHg 59%
    11:00 +30°C° 0.4 mm 1 mps 700 mmHg 57%
    12:00 +31°C° 0.4 mm 1 mps 700 mmHg 54%
    13:00 +32°C° 0.4 mm 1 mps 699 mmHg 52%
    14:00 +31°C° 0.9 mm 1 mps 698 mmHg 56%
    15:00 +30°C° 0.9 mm 1 mps 697 mmHg 60%
    16:00 +30°C° 0.9 mm 1 mps 697 mmHg 64%
    17:00 +28°C° 0.2 mm 1 mps 697 mmHg 71%
    18:00 +26°C° 0.2 mm 1 mps 697 mmHg 78%
    19:00 +25°C° 0.2 mm 1 mps 697 mmHg 85%
    20:00 +24°C° 0 mm 1 mps 698 mmHg 86%
    21:00 +24°C° 0 mm 1 mps 698 mmHg 87%
    22:00 +24°C° 0 mm 1 mps 699 mmHg 88%
    23:00 +23°C° 0.1 mm 1 mps 699 mmHg 90%
    Show more